Location: Unspecified
(0.0000°N, 0.0000°E)
Time: 14:42:44
(UTC+00:00)

ISS - Pass Details

Date: 27 March 2017
Orbit: 399 x 409 km, 51.6° (Epoch: 27 March)

Event Time Altitude Azimuth Distance (km) Brightness Sun altitude
Rises 18:01:42 0° 245° (WSW) 2,296 1.3 0.9°
Reaches altitude 10° 18:04:29 10° 271° (W) 1,437 1.4 0.2°
Maximum altitude 18:06:18 14° 306° (NW) 1,209 -0.4 -0.3°
Drops below altitude 10° 18:08:07 10° 341° (NNW) 1,434 -0.7 -0.7°
Sets 18:10:54 0° 7° (N) 2,289 0.0 -1.4°
